Location: Spondin
(51.8528°N, 111.6118°W)
Time: 18:12:50
(UTC+00:00)

Vanguard 2 Rocket - Pass Details

Date: 02 June 2022
Orbit: 553 x 3323 km, 32.9° (Epoch: 02 July)

Event Time Altitude Azimuth Distance (km) Brightness Sun altitude
Rises 17:48:01 0° 213° (SSW) 6,728 11.5 55.0°
Reaches altitude 10° 17:53:08 10° 204° (SSW) 5,977 11.4 55.6°
Maximum altitude 18:08:24 30° 153° (SSE) 4,774 11.9 57.0°
Drops below altitude 10° 18:23:12 10° 102° (ESE) 5,824 11.4 58.1°
Sets 18:28:02 0° 93° (E) 6,543 11.5 58.5°
